Location: Biltmore Gardens
(41.6070°N, 83.4666°W)
Time: 14:22:47
(UTC+00:00)

Cosmos 332 Rocket - Pass Details

Date: 14 July 2020
Orbit: 682 x 703 km, 74.0° (Epoch: 05 August)

Event Time Altitude Azimuth Distance (km) Brightness Sun altitude
Rises 04:35:10 0° 334° (NNW) 3,053 8.4 -25.0°
Reaches altitude 10° 04:37:32 10° 328° (NNW) 2,135 7.3 -25.2°
Maximum altitude 04:42:07 46° 256° (WSW) 918 4.3 -25.4°
Enters shadow 04:42:08 46° 256° (WSW) 918 4.3 -25.4°
